Dewpoint
62 58 54 50 40 39 36 36 39 40 41 44 47 49 44 40 46 43 56 58 59 63 66 69 70 69 69 68 68 68 67 66 65 64 64 63 62 61 60 59 58 58 58 58 57 56 54 51 50
57 54 53 47 38 35 34 38 37 37 40 51 50 49 49 43 52 54 55 58 59 63 67 68 69 69 68 68 68 67 66 65 64 64 62 61 60 59 58 57 58 57 57 56 56 54 51 50 48
58 56 48 44 40 35 35 37 39 40 46 51 48 56 52 50 54 55 57 59 60 64 67 68 69 69 68 68 67 66 64 63 63 62 60 59 58 58 57 57 56 56 55 55 54 52 50 48 46
56 54 50 41 37 37 37 35 40 41 45 50 49 49 55 53 54 56 59 60 61 65 66 68 69 69 68 67 66 65 63 63 61 60 59 58 57 57 56 56 55 54 54 53 52 50 49 46 43
55 51 43 39 38 38 37 38 38 42 45 48 50 48 52 53 57 57 59 61 63 64 66 67 68 68 67 66 65 64 62 60 59 58 57 57 56 56 56 55 54 53 53 52 50 49 47 44 42
49 48 39 36 38 40 40 38 37 44 45 43 48 48 52 55 56 57 60 62 64 65 66 67 67 67 66 66 64 63 61 59 58 57 56 56 56 55 55 53 53 52 52 51 49 47 45 43 40
46 44 39 38 37 37 37 39 39 45 46 48 52 48 52 53 57 57 62 64 65 66 66 66 66 66 65 64 63 61 59 58 57 56 56 55 55 54 54 52 52 51 50 49 48 46 43 41 38
48 45 38 39 37 36 38 39 46 43 46 51 49 48 51 54 59 60 63 63 64 65 65 65 65 64 63 62 61 60 59 58 58 57 57 56 55 53 52 51 50 49 47 47 46 44 42 38 35
50 43 39 38 37 37 36 39 46 40 46 47 48 49 53 58 60 60 61 61 62 63 63 63 62 61 61 60 60 59 58 57 57 57 56 53 52 51 50 49 48 46 44 44 43 39 37 35 30
49 42 40 40 38 36 36 40 38 39 45 44 49 52 55 57 58 59 59 59 60 61 62 62 61 60 59 59 59 57 57 56 55 54 53 50 48 48 48 48 45 44 42 39 35 31 32 30 26
46 42 42 42 40 39 37 38 36 34 41 42 45 49 53 55 56 58 58 59 60 61 61 61 60 59 58 58 57 55 55 54 53 51 50 45 46 46 45 44 41 39 37 33 28 22 21 20 21
44 45 42 42 40 39 38 37 36 29 37 41 43 49 51 52 54 56 57 58 59 60 60 60 59 58 57 57 56 55 53 52 51 51 43 43 43 41 42 38 32 27 28 24 23 22 20 20 20
44 42 43 41 40 39 39 38 32 28 36 42 46 50 51 53 54 56 57 58 58 59 59 59 58 58 56 55 55 54 52 50 49 44 41 41 40 35 31 28 27 26 25 24 22 21 22 21 23
40 44 42 41 40 39 38 39 34 32 31 42 47 48 49 50 52 54 56 55 57 59 59 58 58 57 55 54 53 52 50 48 45 41 41 38 34 31 29 28 27 26 26 26 24 23 23 22 23
36 39 43 41 40 39 39 36 34 34 28 39 45 46 47 49 51 52 54 53 57 58 58 58 57 57 55 54 52 50 48 43 39 39 39 33 33 31 31 30 29 28 27 25 22 22 23 21 21
34 37 36 42 40 38 38 35 36 34 30 33 43 44 45 45 48 51 52 51 55 57 58 58 57 56 55 53 51 48 45 38 36 36 34 32 32 31 31 30 29 28 25 25 23 23 21 19 20
33 30 34 38 40 36 35 35 35 34 30 28 35 40 43 43 42 46 49 51 55 57 57 57 56 56 55 52 50 47 42 35 34 32 31 31 31 32 31 30 28 26 24 23 20 21 21 20 20
27 32 31 33 38 34 33 31 31 32 31 29 26 32 38 38 41 45 49 51 55 56 57 56 56 55 55 52 49 46 38 34 32 31 31 31 30 31 30 29 26 25 24 21 21 20 21 20 20
31 28 31 35 34 33 30 30 30 30 27 29 26 28 37 39 37 40 42 48 55 56 55 55 55 55 54 51 48 44 37 33 31 31 31 30 30 30 30 28 26 26 24 22 21 22 20 22 23
29 28 26 26 31 28 29 29 29 29 29 27 25 24 31 37 39 42 46 51 54 54 55 55 55 54 53 51 48 44 37 33 31 31 31 30 29 31 30 28 27 26 25 22 22 21 21 21 22
33 24 24 23 22 24 25 25 26 27 27 27 26 25 23 26 34 37 43 48 52 53 54 54 54 54 53 51 48 41 37 34 31 31 31 30 29 31 30 28 28 27 25 22 22 23 21 21 21
29 29 22 21 20 18 20 23 23 24 25 25 25 24 23 23 27 33 35 46 51 53 54 54 54 54 53 51 46 40 36 33 31 30 31 30 30 31 30 30 28 27 26 25 23 23 21 23 19
30 32 26 23 20 24 23 20 18 20 21 22 23 22 23 24 24 28 31 40 50 52 53 53 53 53 53 51 46 41 38 34 32 31 31 30 31 31 31 30 28 27 27 26 22 23 21 22 23
28 32 33 26 22 22 27 23 20 15 19 20 20 22 23 23 23 23 26 39 48 51 52 53 53 53 53 51 46 42 39 35 32 31 30 30 31 31 31 30 29 28 27 25 21 24 22 21 22
31 29 23 21 21 20 24 19 16 16 15 18 18 19 21 23 23 23 26 40 44 49 52 53 52 52 52 51 47 43 40 35 32 31 30 30 30 31 31 30 29 28 27 25 24 24 22 21 20
30 28 21 16 17 19 20 17 15 15 14 13 15 16 16 19 20 23 24 37 43 48 51 52 52 52 52 51 48 45 42 37 33 31 30 29 30 30 31 30 29 27 27 26 25 24 23 22 22
26 25 29 21 16 15 16 14 13 14 12 15 29 33 34 32 25 24 24 30 41 46 50 51 52 51 52 51 48 47 44 39 34 32 30 29 29 30 30 29 28 27 26 25 24 24 22 22 22
28 27 24 25 13 9 12 11 12 18 21 25 28 33 37 37 37 37 37 33 37 43 48 50 51 51 51 50 49 48 45 41 35 32 30 30 30 30 30 29 27 26 24 23 23 22 21 21 21
28 26 25 24 17 11 12 19 24 23 23 23 23 24 27 29 30 31 35 35 33 40 44 48 50 51 50 50 49 48 46 43 37 33 31 30 29 30 29 28 27 24 23 22 22 21 20 19 20
26 22 24 17 16 13 11 20 18 19 20 23 22 23 23 23 24 26 29 32 36 36 41 45 48 49 50 50 49 48 47 44 39 34 32 30 29 29 29 27 26 23 22 21 20 20 19 19 19
Wind_Speed
12 11 5 4 6 8 21 20 23 17 18 26 15 11 27 18 14 4 3 7 18 24 22 25 24 24 24 24 25 25 23 22 21 20 19 18 18 17 17 17 16 18 16 17 17 16 17 16 16
13 8 1 2 15 26 32 24 25 32 22 8 4 13 28 12 7 9 7 10 14 24 21 23 26 24 25 26 27 26 23 23 22 20 19 17 17 17 17 17 17 17 16 17 17 16 17 17 17
9 4 8 8 15 42 32 17 27 25 14 12 8 12 12 6 11 10 6 13 24 25 21 22 26 26 26 28 27 26 23 21 21 20 18 18 18 17 17 18 17 17 17 18 16 17 17 17 16
8 4 1 11 34 33 35 22 13 17 23 23 21 13 6 7 4 8 13 11 25 25 23 26 25 27 27 27 27 27 23 22 21 20 19 18 19 18 18 18 17 17 17 17 16 18 17 17 15
7 7 8 17 35 28 25 29 24 19 19 22 22 19 6 5 6 5 15 16 25 25 21 25 26 27 28 27 25 27 24 21 21 20 19 19 19 18 18 17 17 18 17 16 18 17 17 16 15
10 5 13 30 22 26 30 29 33 21 31 19 22 18 8 4 5 6 12 14 13 26 22 24 27 28 28 27 25 25 23 22 22 21 20 20 20 19 17 17 17 17 17 15 18 17 16 16 16
19 11 17 18 27 26 29 32 20 25 24 14 6 14 6 9 8 9 7 12 18 19 23 23 24 25 27 26 23 23 22 22 22 22 21 21 21 19 18 16 16 17 16 16 17 17 16 15 15
15 8 27 27 25 31 29 20 32 38 19 11 10 7 6 8 10 8 8 12 19 17 22 22 22 22 23 22 24 22 22 22 21 22 21 22 19 20 19 16 16 16 15 16 16 16 16 14 14
25 22 32 37 35 31 18 5 24 16 17 7 9 5 11 15 6 6 10 15 15 14 17 22 21 21 22 21 22 23 23 21 22 22 23 19 15 18 15 16 17 15 15 15 15 16 15 15 12
25 37 38 27 26 24 21 18 23 18 16 9 11 11 13 17 10 13 12 16 15 18 19 21 21 21 22 20 20 20 18 16 16 17 19 16 16 16 16 15 17 15 15 14 12 11 8 7 6
44 34 30 29 25 24 25 26 30 25 24 20 25 22 19 16 17 12 12 13 19 18 18 22 22 22 22 23 18 16 15 15 16 19 15 18 17 16 14 15 12 12 13 10 8 9 9 9 7
28 31 29 30 26 28 32 17 29 24 11 19 25 27 22 20 18 16 19 18 16 20 21 21 23 23 21 22 19 18 16 14 14 16 20 19 17 15 15 13 13 11 8 9 10 9 9 10 9
46 32 32 23 33 31 28 28 27 20 23 25 25 25 24 24 19 14 12 13 18 18 22 24 23 21 22 22 20 19 17 16 16 15 18 19 16 17 15 14 12 10 9 10 10 9 9 9 8
29 40 30 37 35 30 34 32 24 21 12 25 32 27 25 24 22 17 15 19 22 21 22 24 24 20 25 23 21 19 16 18 18 17 17 18 16 15 14 14 13 10 10 10 9 8 9 7 9
39 36 45 33 40 42 33 29 35 24 18 25 28 28 25 24 23 17 17 20 23 23 21 26 26 22 22 24 20 17 17 18 17 17 17 19 17 15 15 15 14 12 10 12 10 8 7 8 8
42 45 50 44 34 34 31 36 36 22 24 20 27 25 24 22 21 16 19 20 22 24 26 24 22 27 22 22 17 16 17 17 17 17 16 18 18 17 16 16 14 14 12 11 11 8 6 7 6
34 37 48 20 35 26 32 20 27 24 24 26 26 26 25 21 20 11 19 24 26 29 29 29 26 28 22 20 18 17 18 17 17 17 17 20 19 19 18 16 16 16 13 11 11 5 6 7 6
42 28 38 43 27 31 37 27 17 33 34 29 26 22 24 25 25 24 22 30 26 27 28 29 26 26 23 20 18 16 16 16 16 17 17 21 19 20 19 17 17 15 13 12 11 8 6 6 5
29 36 34 27 25 37 39 35 25 24 19 30 28 26 23 27 28 23 36 26 31 31 30 30 30 29 25 24 25 21 22 18 16 17 19 20 19 20 19 18 18 15 15 13 13 10 11 4 3
34 38 34 20 29 29 25 31 29 26 32 17 30 27 28 28 20 19 24 23 25 29 31 31 32 30 29 26 24 20 21 14 16 15 19 18 21 20 21 20 18 17 16 14 13 11 7 4 4
38 39 36 26 21 28 31 32 27 31 24 26 21 31 29 27 31 35 29 29 31 32 33 33 34 35 32 28 22 20 17 15 18 18 18 19 20 20 20 21 19 17 16 17 14 11 9 8 4
24 36 25 33 30 23 21 20 31 28 31 29 28 25 29 29 30 40 37 31 34 37 34 33 32 34 31 30 27 32 33 30 22 23 19 18 19 21 22 21 19 18 16 17 14 10 9 10 10
7 27 29 15 24 6 25 14 18 25 32 32 32 32 27 31 25 32 34 32 38 31 32 33 35 36 35 32 30 30 28 24 20 21 23 20 19 20 20 21 21 20 16 17 16 14 11 7 11
18 8 19 17 12 12 18 26 17 23 35 30 27 27 29 30 27 28 28 21 25 29 31 32 33 34 34 34 34 34 32 28 26 26 26 23 20 20 19 20 21 20 18 19 18 15 13 11 10
15 15 11 19 17 6 20 16 15 33 24 33 30 28 29 29 29 25 22 29 31 35 34 32 34 36 37 36 35 35 33 33 33 32 30 29 25 23 23 22 21 20 18 19 18 17 15 14 14
16 16 11 3 13 15 16 14 20 27 19 8 5 26 24 28 30 27 25 29 31 33 34 34 35 35 36 37 36 32 30 27 27 31 29 28 27 26 24 22 20 22 20 19 19 16 15 15 14
10 14 3 3 10 15 10 2 12 27 25 4 26 28 23 21 6 13 24 21 26 28 31 35 33 34 34 37 35 35 31 30 28 30 28 26 24 23 26 24 23 22 21 20 19 17 17 16 14
7 10 7 6 16 10 15 21 9 9 10 23 26 25 25 27 27 24 21 11 23 28 29 30 31 35 33 34 33 31 31 29 26 28 29 28 26 27 28 27 25 24 22 21 20 18 17 17 15
4 6 12 8 3 9 13 6 12 19 21 22 22 23 23 24 25 26 27 20 17 15 21 25 27 28 30 32 32 30 29 30 26 28 26 27 26 29 30 30 28 27 25 22 20 18 19 19 17
11 11 19 17 19 11 3 6 17 20 23 22 23 22 21 22 23 25 26 28 25 14 16 20 21 25 26 27 30 30 28 28 27 26 26 25 27 28 29 29 28 26 25 24 22 22 19 21 20
Wind_Direction
164 185 175 180 224 225 235 228 228 248 279 219 178 172 258 218 198 186 184 148 141 142 158 158 159 153 149 144 138 135 128 123 124 122 122 122 117 116 110 106 102 100 97 95 90 84 81 79 77
177 164 79 159 227 231 237 229 236 237 247 287 258 299 260 191 93 132 135 226 154 143 157 153 151 150 151 144 137 132 129 127 124 122 126 125 120 114 110 107 104 97 97 90 86 83 81 78 81
126 92 168 208 234 229 238 219 234 242 224 204 217 262 289 95 102 150 205 183 143 144 154 153 149 151 149 143 134 131 133 129 127 129 130 124 120 116 111 107 102 102 97 93 91 85 80 76 78
126 92 110 229 229 234 231 218 222 243 208 194 198 226 246 52 86 155 157 184 136 144 155 151 150 148 148 139 135 133 132 133 134 131 129 127 121 117 114 108 108 105 100 98 95 85 79 78 80
155 137 202 231 239 241 234 245 253 276 257 193 183 197 273 354 17 138 172 168 146 139 143 149 149 145 145 136 133 133 138 142 137 135 134 128 123 118 116 114 112 107 104 101 93 88 84 82 83
178 184 199 232 229 230 237 236 233 226 262 186 199 193 177 121 127 264 198 155 139 131 139 144 146 146 138 133 134 136 141 142 138 138 136 130 123 122 119 116 113 109 104 102 93 89 85 82 82
196 215 210 217 227 240 223 220 208 206 248 213 139 209 164 146 188 216 207 106 111 124 132 137 144 138 132 131 138 140 144 142 143 139 139 130 127 125 121 118 114 108 104 100 95 92 88 86 84
205 217 220 226 219 236 234 208 224 206 203 123 139 197 187 167 185 168 130 109 112 124 139 145 137 136 133 137 139 142 140 142 143 137 132 123 123 124 121 119 113 112 109 102 102 98 93 88 84
198 222 225 216 215 226 232 255 210 263 144 141 176 148 139 137 151 160 135 122 121 133 141 138 139 139 136 135 139 135 136 141 136 127 121 114 120 119 115 120 115 111 112 105 104 101 101 97 89
203 213 220 214 221 218 228 192 241 230 145 171 160 102 127 140 167 178 186 143 150 152 148 143 144 143 139 139 138 135 137 134 131 133 135 133 133 121 114 121 115 119 111 112 112 112 127 127 111
222 227 210 215 220 240 242 191 230 202 178 165 176 160 156 159 173 190 189 156 176 163 157 153 152 150 149 142 143 141 144 148 143 153 157 112 109 114 119 113 117 122 127 130 135 85 71 76 94
224 220 213 217 227 228 241 242 243 222 174 178 177 167 162 165 182 201 182 191 188 180 169 163 159 158 156 150 150 154 157 157 155 169 129 125 130 136 141 149 157 160 148 129 104 97 92 75 64
227 226 219 213 215 227 240 244 239 233 186 174 151 154 158 165 179 190 200 204 201 196 173 170 165 166 154 160 155 161 166 150 158 147 131 138 155 151 161 151 147 143 139 126 121 121 110 99 83
228 227 208 211 229 222 227 241 255 252 195 164 153 162 159 165 177 192 201 205 202 194 177 172 172 179 152 167 160 162 155 145 147 144 148 150 154 158 157 149 137 136 127 119 118 119 113 112 111
232 236 228 221 214 222 232 226 226 232 229 178 168 169 173 176 163 196 216 202 189 191 181 177 174 182 164 170 160 150 143 145 148 153 159 155 159 155 149 138 140 134 128 116 115 119 130 128 120
223 226 237 214 211 218 218 235 232 219 229 188 178 178 176 174 167 189 232 221 198 189 185 179 172 181 178 166 145 144 151 148 152 161 163 158 157 154 148 150 147 142 143 143 138 147 138 119 107
230 220 220 224 226 206 210 227 228 224 215 221 189 189 183 179 153 190 249 226 196 194 183 183 179 179 176 160 150 150 156 159 159 156 166 162 164 157 158 158 153 152 151 146 140 139 149 127 112
208 216 222 225 228 216 222 218 202 202 216 214 205 193 185 179 177 164 216 218 197 192 185 183 178 177 174 164 153 148 157 165 158 161 169 168 165 162 158 153 155 150 152 144 138 143 97 108 109
202 210 222 213 209 209 212 219 219 218 212 207 202 196 189 188 187 167 210 196 188 189 181 180 179 180 174 172 169 166 170 168 165 169 169 170 164 162 155 155 158 154 155 156 150 148 130 86 54
221 215 218 218 199 221 210 210 216 221 222 215 196 196 191 193 192 173 190 193 190 187 183 182 183 180 183 181 179 168 166 170 171 169 168 167 167 163 157 161 160 161 158 154 154 154 133 114 47
226 213 214 207 203 213 211 227 219 211 205 229 225 206 206 195 181 195 199 197 188 192 183 186 187 187 186 181 169 149 154 159 173 178 166 172 168 166 157 163 163 166 158 160 167 164 151 142 88
232 217 207 212 226 208 212 227 220 210 208 199 219 197 207 206 199 189 199 197 191 195 192 187 188 188 190 181 174 171 176 177 185 177 170 168 168 168 166 162 167 162 160 165 161 164 160 141 141
297 205 220 207 206 182 222 232 224 203 213 209 209 206 202 210 210 200 206 194 193 185 190 191 188 188 188 186 181 179 184 184 173 168 165 170 168 173 167 164 165 162 165 163 157 156 156 140 153
235 249 233 218 215 207 200 211 215 220 211 214 213 211 210 215 219 213 204 180 180 184 191 190 188 192 189 185 184 185 186 180 170 171 172 175 172 171 169 165 165 163 164 164 160 158 155 149 137
191 190 163 191 210 178 196 215 217 209 234 212 215 205 213 209 219 217 178 178 186 188 190 189 188 192 190 190 189 191 189 183 179 175 177 173 172 176 177 169 164 165 165 161 159 159 158 158 153
187 188 226 104 160 179 183 221 211 244 238 245 200 206 210 206 214 206 195 187 188 189 189 190 191 194 193 192 193 193 193 188 185 181 180 181 178 178 171 167 161 163 163 161 160 162 162 162 156
185 216 179 227 205 171 170 211 172 224 243 326 49 51 34 22 18 203 194 186 186 190 193 193 193 194 194 195 192 196 193 191 188 185 181 180 174 172 167 166 164 162 162 161 162 165 167 168 161
215 180 158 223 190 180 172 197 186 44 99 51 43 36 28 22 19 11 8 338 187 187 192 195 195 195 194 195 198 197 195 193 185 184 183 179 174 171 167 166 168 164 164 162 164 171 170 169 166
176 206 213 220 272 162 154 108 58 48 44 46 37 31 26 20 12 7 354 351 351 185 189 194 197 194 195 193 197 199 196 194 185 187 184 179 172 171 171 171 170 167 166 165 169 171 171 174 168
89 5 230 209 226 206 263 99 43 50 43 40 31 24 27 23 15 9 2 2 357 352 190 193 196 197 198 193 194 197 195 193 191 184 183 179 177 174 172 172 172 168 168 166 172 173 177 176 171